Time,TemperatureF,DewpointF,PressureIn,WindDirection,WindDirectionDegrees,WindSpeedMPH,WindSpeedGustMPH,Humidity,HourlyPrecipIn,Conditions,Clouds,dailyrainin,SoftwareType,DateUTC
2013-01-26 00:12:00,37.6,38.0,29.88,NW,319,0.0,-999.0,100,-99.99,,,0.00,weatherlink.com 1.10,2013-01-26 08:12:00,
2013-01-26 00:27:00,38.0,38.0,29.88,NW,319,0.0,-999.0,100,-99.99,,,0.00,weatherlink.com 1.10,2013-01-26 08:27:00,
2013-01-26 00:42:00,38.2,38.0,29.87,NW,319,0.0,-999.0,100,-99.99,,,0.00,weatherlink.com 1.10,2013-01-26 08:42:00,
2013-01-26 00:57:00,37.9,38.0,29.87,NW,319,0.0,-999.0,100,-99.99,,,0.00,weatherlink.com 1.10,2013-01-26 08:57:00,
2013-01-26 01:12:00,37.9,38.0,29.86,NW,319,0.0,-999.0,100,-99.99,,,0.00,weatherlink.com 1.10,2013-01-26 09:12:00,
2013-01-26 01:27:00,38.2,38.0,29.86,NW,319,0.0,-999.0,100,-99.99,,,0.00,weatherlink.com 1.10,2013-01-26 09:27:00,
2013-01-26 01:42:00,37.9,38.0,29.86,NW,319,0.0,-999.0,100,-99.99,,,0.01,weatherlink.com 1.10,2013-01-26 09:42:00,
2013-01-26 01:57:00,37.8,38.0,29.86,NW,319,0.0,-999.0,100,-99.99,,,0.02,weatherlink.com 1.10,2013-01-26 09:57:00,
2013-01-26 02:12:00,38.0,38.0,29.87,NW,319,0.0,-999.0,100,-99.99,,,0.03,weatherlink.com 1.10,2013-01-26 10:12:00,
2013-01-26 02:27:00,38.0,38.0,29.86,NW,319,0.0,-999.0,100,-99.99,,,0.03,weatherlink.com 1.10,2013-01-26 10:27:00,
2013-01-26 02:42:00,38.0,38.0,29.86,NW,319,0.0,-999.0,100,-99.99,,,0.03,weatherlink.com 1.10,2013-01-26 10:42:00,
2013-01-26 02:57:00,38.2,38.0,29.86,NW,319,0.0,-999.0,100,-99.99,,,0.03,weatherlink.com 1.10,2013-01-26 10:57:00,
2013-01-26 03:12:00,38.0,38.0,29.86,NW,319,0.0,-999.0,100,-99.99,,,0.03,weatherlink.com 1.10,2013-01-26 11:12:00,
2013-01-26 03:27:00,37.6,38.0,29.86,NW,319,0.0,-999.0,100,-99.99,,,0.03,weatherlink.com 1.10,2013-01-26 11:27:00,
2013-01-26 03:42:00,37.8,38.0,29.86,NW,319,0.0,-999.0,100,-99.99,,,0.03,weatherlink.com 1.10,2013-01-26 11:42:00,
2013-01-26 03:57:00,38.2,38.0,29.86,NW,319,0.0,-999.0,100,-99.99,,,0.03,weatherlink.com 1.10,2013-01-26 11:57:00,
2013-01-26 04:12:00,38.2,38.0,29.86,NW,319,0.0,-999.0,100,-99.99,,,0.04,weatherlink.com 1.10,2013-01-26 12:12:00,
2013-01-26 04:27:00,38.5,39.0,29.86,NW,319,0.0,-999.0,100,-99.99,,,0.05,weatherlink.com 1.10,2013-01-26 12:27:00,
2013-01-26 04:42:00,38.3,38.0,29.86,NW,319,0.0,-999.0,100,-99.99,,,0.05,weatherlink.com 1.10,2013-01-26 12:42:00,
2013-01-26 04:57:00,38.0,38.0,29.86,NW,319,0.0,-999.0,100,-99.99,,,0.05,weatherlink.com 1.10,2013-01-26 12:57:00,
2013-01-26 05:12:00,38.0,38.0,29.86,NW,319,0.0,-999.0,100,-99.99,,,0.05,weatherlink.com 1.10,2013-01-26 13:12:00,
2013-01-26 05:27:00,38.5,39.0,29.86,NW,319,0.0,-999.0,100,-99.99,,,0.05,weatherlink.com 1.10,2013-01-26 13:27:00,
2013-01-26 05:42:00,38.3,38.0,29.86,NW,319,0.0,-999.0,100,-99.99,,,0.05,weatherlink.com 1.10,2013-01-26 13:42:00,
2013-01-26 05:57:00,38.0,38.0,29.86,NW,319,0.0,-999.0,100,-99.99,,,0.05,weatherlink.com 1.10,2013-01-26 13:57:00,
2013-01-26 06:12:00,37.8,38.0,29.87,NW,319,0.0,-999.0,100,-99.99,,,0.05,weatherlink.com 1.10,2013-01-26 14:12:00,
2013-01-26 06:27:00,37.5,38.0,29.86,NW,319,0.0,-999.0,100,-99.99,,,0.05,weatherlink.com 1.10,2013-01-26 14:27:00,
2013-01-26 06:42:00,37.3,37.0,29.87,NW,319,0.0,-999.0,100,-99.99,,,0.05,weatherlink.com 1.10,2013-01-26 14:42:00,
2013-01-26 06:57:00,37.6,38.0,29.87,NW,319,0.0,-999.0,100,-99.99,,,0.05,weatherlink.com 1.10,2013-01-26 14:57:00,
2013-01-26 07:12:00,37.3,37.0,29.87,NW,319,0.0,-999.0,100,-99.99,,,0.05,weatherlink.com 1.10,2013-01-26 15:12:00,
2013-01-26 07:27:00,36.9,37.0,29.87,NW,319,0.0,-999.0,100,-99.99,,,0.05,weatherlink.com 1.10,2013-01-26 15:27:00,
2013-01-26 07:42:00,36.9,37.0,29.88,NW,319,0.0,-999.0,100,-99.99,,,0.05,weatherlink.com 1.10,2013-01-26 15:42:00,
2013-01-26 07:57:00,37.0,37.0,29.88,NW,319,0.0,-999.0,100,-99.99,,,0.05,weatherlink.com 1.10,2013-01-26 15:57:00,
2013-01-26 08:12:00,37.3,37.0,29.88,NW,319,0.0,-999.0,100,-99.99,,,0.05,weatherlink.com 1.10,2013-01-26 16:12:00,
2013-01-26 08:27:00,37.9,38.0,29.88,NW,319,0.0,-999.0,100,-99.99,,,0.05,weatherlink.com 1.10,2013-01-26 16:27:00,
2013-01-26 08:43:00,38.3,38.0,29.88,NW,319,0.0,-999.0,100,-99.99,,,0.05,weatherlink.com 1.10,2013-01-26 16:43:00,
2013-01-26 08:58:00,38.3,38.0,29.89,NW,319,0.0,-999.0,100,-99.99,,,0.06,weatherlink.com 1.10,2013-01-26 16:58:00,
2013-01-26 09:12:00,38.5,39.0,29.89,NW,319,0.0,-999.0,100,-99.99,,,0.07,weatherlink.com 1.10,2013-01-26 17:12:00,
2013-01-26 09:27:00,38.8,39.0,29.89,NW,319,0.0,-999.0,100,-99.99,,,0.08,weatherlink.com 1.10,2013-01-26 17:27:00,
2013-01-26 09:43:00,39.5,40.0,29.89,NW,319,0.0,-999.0,100,-99.99,,,0.08,weatherlink.com 1.10,2013-01-26 17:43:00,
2013-01-26 09:58:00,40.1,40.0,29.90,NW,319,0.0,-999.0,100,-99.99,,,0.08,weatherlink.com 1.10,2013-01-26 17:58:00,
2013-01-26 10:13:00,40.8,41.0,29.90,NW,319,0.0,-999.0,100,-99.99,,,0.08,weatherlink.com 1.10,2013-01-26 18:13:00,
2013-01-26 10:28:00,42.2,42.0,29.90,SSW,200,0.0,-999.0,100,-99.99,,,0.08,weatherlink.com 1.10,2013-01-26 18:28:00,
2013-01-26 10:42:00,41.5,42.0,29.91,SSW,199,0.0,-999.0,100,-99.99,,,0.09,weatherlink.com 1.10,2013-01-26 18:42:00,
2013-01-26 10:58:00,41.6,42.0,29.91,SSW,200,0.0,-999.0,100,-99.99,,,0.10,weatherlink.com 1.10,2013-01-26 18:58:00,
2013-01-26 11:13:00,41.5,42.0,29.91,NNE,19,0.0,-999.0,100,-99.99,,,0.11,weatherlink.com 1.10,2013-01-26 19:13:00,
2013-01-26 11:28:00,41.2,41.0,29.91,NNE,20,0.0,-999.0,100,-99.99,,,0.12,weatherlink.com 1.10,2013-01-26 19:28:00,
2013-01-26 11:43:00,41.2,41.0,29.91,WNW,286,1.0,-999.0,100,-99.99,,,0.12,weatherlink.com 1.10,2013-01-26 19:43:00,
2013-01-26 11:58:00,40.8,41.0,29.90,WNW,286,0.0,-999.0,100,-99.99,,,0.12,weatherlink.com 1.10,2013-01-26 19:58:00,
2013-01-26 12:12:00,40.6,41.0,29.90,WNW,286,0.0,-999.0,100,-99.99,,,0.12,weatherlink.com 1.10,2013-01-26 20:12:00,
2013-01-26 12:28:00,41.6,42.0,29.90,WNW,286,0.0,-999.0,100,-99.99,,,0.12,weatherlink.com 1.10,2013-01-26 20:28:00,
2013-01-26 12:42:00,42.1,42.0,29.90,WNW,286,0.0,-999.0,100,-99.99,,,0.12,weatherlink.com 1.10,2013-01-26 20:42:00,
2013-01-26 12:57:00,42.9,43.0,29.89,West,280,0.0,-999.0,100,-99.99,,,0.12,weatherlink.com 1.10,2013-01-26 20:57:00,
2013-01-26 13:12:00,44.2,44.0,29.89,NNW,339,0.0,-999.0,100,-99.99,,,0.12,weatherlink.com 1.10,2013-01-26 21:12:00,
2013-01-26 13:27:00,43.3,43.0,29.88,SW,223,2.0,-999.0,100,-99.99,,,0.14,weatherlink.com 1.10,2013-01-26 21:27:00,
2013-01-26 13:42:00,40.3,40.0,29.89,West,274,0.0,-999.0,100,-99.99,,,0.20,weatherlink.com 1.10,2013-01-26 21:42:00,
2013-01-26 13:57:00,39.5,40.0,29.89,West,274,0.0,-999.0,100,-99.99,,,0.22,weatherlink.com 1.10,2013-01-26 21:57:00,
2013-01-26 14:12:00,40.3,40.0,29.88,West,274,0.0,-999.0,100,-99.99,,,0.22,weatherlink.com 1.10,2013-01-26 22:12:00,
2013-01-26 14:27:00,41.3,41.0,29.88,West,275,0.0,-999.0,100,-99.99,,,0.22,weatherlink.com 1.10,2013-01-26 22:27:00,
2013-01-26 14:42:00,41.3,41.0,29.88,West,275,0.0,-999.0,100,-99.99,,,0.22,weatherlink.com 1.10,2013-01-26 22:42:00,
2013-01-26 14:57:00,41.2,41.0,29.88,West,275,0.0,-999.0,100,-99.99,,,0.22,weatherlink.com 1.10,2013-01-26 22:57:00,
2013-01-26 15:12:00,41.1,41.0,29.89,West,275,0.0,-999.0,100,-99.99,,,0.22,weatherlink.com 1.10,2013-01-26 23:12:00,
2013-01-26 15:27:00,41.6,42.0,29.89,West,275,0.0,-999.0,100,-99.99,,,0.22,weatherlink.com 1.10,2013-01-26 23:27:00,
2013-01-26 15:42:00,41.8,42.0,29.89,WNW,302,0.0,-999.0,100,-99.99,,,0.22,weatherlink.com 1.10,2013-01-26 23:42:00,
2013-01-26 15:57:00,41.8,42.0,29.89,WNW,303,4.0,-999.0,100,-99.99,,,0.22,weatherlink.com 1.10,2013-01-26 23:57:00,
2013-01-26 16:12:00,39.1,39.0,29.90,West,278,0.0,-999.0,100,-99.99,,,0.28,weatherlink.com 1.10,2013-01-27 00:12:00,
2013-01-26 16:27:00,39.3,39.0,29.90,SW,215,0.0,-999.0,100,-99.99,,,0.28,weatherlink.com 1.10,2013-01-27 00:27:00,
2013-01-26 16:42:00,38.8,39.0,29.90,SW,215,0.0,-999.0,100,-99.99,,,0.28,weatherlink.com 1.10,2013-01-27 00:42:00,
2013-01-26 16:57:00,38.8,39.0,29.91,SSW,203,0.0,-999.0,100,-99.99,,,0.28,weatherlink.com 1.10,2013-01-27 00:57:00,
2013-01-26 17:12:00,38.8,39.0,29.91,SSW,203,0.0,-999.0,100,-99.99,,,0.28,weatherlink.com 1.10,2013-01-27 01:12:00,
2013-01-26 17:27:00,38.5,39.0,29.91,SSW,203,0.0,-999.0,100,-99.99,,,0.28,weatherlink.com 1.10,2013-01-27 01:27:00,
2013-01-26 17:42:00,37.9,38.0,29.91,SSW,203,0.0,-999.0,100,-99.99,,,0.28,weatherlink.com 1.10,2013-01-27 01:42:00,
2013-01-26 17:57:00,37.2,37.0,29.92,WSW,249,0.0,-999.0,100,-99.99,,,0.28,weatherlink.com 1.10,2013-01-27 01:57:00,
2013-01-26 18:12:00,37.2,37.0,29.93,WSW,249,0.0,-999.0,100,-99.99,,,0.29,weatherlink.com 1.10,2013-01-27 02:12:00,
2013-01-26 18:27:00,37.5,38.0,29.93,WSW,249,0.0,-999.0,100,-99.99,,,0.29,weatherlink.com 1.10,2013-01-27 02:27:00,
2013-01-26 18:42:00,37.5,38.0,29.93,WSW,249,0.0,-999.0,100,-99.99,,,0.29,weatherlink.com 1.10,2013-01-27 02:42:00,
2013-01-26 18:57:00,37.5,38.0,29.94,WSW,249,0.0,-999.0,100,-99.99,,,0.29,weatherlink.com 1.10,2013-01-27 02:57:00,
2013-01-26 19:12:00,37.8,38.0,29.95,WSW,249,0.0,-999.0,100,-99.99,,,0.29,weatherlink.com 1.10,2013-01-27 03:12:00,
2013-01-26 19:27:00,37.9,38.0,29.94,WSW,249,0.0,-999.0,100,-99.99,,,0.29,weatherlink.com 1.10,2013-01-27 03:27:00,
2013-01-26 19:42:00,38.0,38.0,29.95,WSW,249,0.0,-999.0,100,-99.99,,,0.29,weatherlink.com 1.10,2013-01-27 03:42:00,
2013-01-26 19:57:00,37.8,38.0,29.95,WSW,249,0.0,-999.0,100,-99.99,,,0.29,weatherlink.com 1.10,2013-01-27 03:57:00,
2013-01-26 20:12:00,37.8,38.0,29.95,WSW,249,0.0,-999.0,100,-99.99,,,0.29,weatherlink.com 1.10,2013-01-27 04:12:00,
2013-01-26 20:27:00,37.9,38.0,29.96,WSW,249,0.0,-999.0,100,-99.99,,,0.29,weatherlink.com 1.10,2013-01-27 04:27:00,
2013-01-26 20:42:00,38.0,38.0,29.96,WSW,249,0.0,-999.0,100,-99.99,,,0.29,weatherlink.com 1.10,2013-01-27 04:42:00,
2013-01-26 20:57:00,38.0,38.0,29.96,WSW,249,0.0,-999.0,100,-99.99,,,0.29,weatherlink.com 1.10,2013-01-27 04:57:00,
2013-01-26 21:12:00,37.9,38.0,29.96,WSW,249,0.0,-999.0,100,-99.99,,,0.29,weatherlink.com 1.10,2013-01-27 05:12:00,
2013-01-26 21:27:00,37.5,38.0,29.97,WSW,249,0.0,-999.0,100,-99.99,,,0.29,weatherlink.com 1.10,2013-01-27 05:27:00,
2013-01-26 21:42:00,37.2,37.0,29.97,WSW,249,0.0,-999.0,100,-99.99,,,0.29,weatherlink.com 1.10,2013-01-27 05:42:00,
2013-01-26 21:57:00,37.5,38.0,29.98,WSW,249,0.0,-999.0,100,-99.99,,,0.29,weatherlink.com 1.10,2013-01-27 05:57:00,
2013-01-26 22:12:00,37.5,38.0,29.98,WSW,249,0.0,-999.0,100,-99.99,,,0.29,weatherlink.com 1.10,2013-01-27 06:12:00,
2013-01-26 22:27:00,37.5,38.0,29.98,WSW,249,0.0,-999.0,100,-99.99,,,0.29,weatherlink.com 1.10,2013-01-27 06:27:00,
2013-01-26 22:42:00,37.3,37.0,29.99,WSW,249,0.0,-999.0,100,-99.99,,,0.29,weatherlink.com 1.10,2013-01-27 06:42:00,
2013-01-26 22:57:00,37.0,37.0,29.99,WSW,249,0.0,-999.0,100,-99.99,,,0.29,weatherlink.com 1.10,2013-01-27 06:57:00,
2013-01-26 23:27:00,37.0,37.0,30.00,WSW,249,0.0,-999.0,100,-99.99,,,0.29,weatherlink.com 1.10,2013-01-27 07:27:00,
2013-01-26 23:42:00,36.9,37.0,30.00,WSW,249,0.0,-999.0,100,-99.99,,,0.29,weatherlink.com 1.10,2013-01-27 07:42:00,
2013-01-26 23:57:00,36.9,37.0,30.00,WSW,249,0.0,-999.0,100,-99.99,,,0.29,weatherlink.com 1.10,2013-01-27 07:57:00,